Tracking 29967 objects as of 6-Dec-2024
HD Live streaming from Space Station
objects crossing your sky now

STARLINK-32402

Track STARLINK-32402 now!
10-day predictions
STARLINK-32402 is classified as:


NORAD ID: 61708
Int'l Code: 2024-196B
Perigee: 453.3 km
Apogee: 455.4 km
Inclination: 53.2 °
Period: 93.5 minutes
Semi major axis: 6825 km
RCS: Unknown
Launch date: October 30, 2024
Source: United States (US)
Launch site: AIR FORCE EASTERN TEST RANGE (AFETR)
Your satellite tracking list
Your tracking list is empty




NASA's NSSDC Master Catalog

Two Line Element Set (TLE):
1 61708U 24196B   24340.58334491 -.00030381  00000-0 -75242-3 0  9994
2 61708  53.1598  77.2899 0001593  68.1448  47.9046 15.39624486  6178
Source of the keplerian elements: AFSPC